User: anonymous
Location: Brno
(49.2000°N, 16.6330°E)
Time: 04:13:59
(UTC+02:00)
Language:

NOSS 3-4 (A) - Orbit

View from above orbital plane
View from above orbital plane
View from above satellite
View from above satellite

Ground track
Ground track

The orbit data is extracted from the following two-line orbital elements,

1 31701U 07027A   14243.87817955 0.00000000  00000-0  00000-0 0    05
2 31701  63.4030 163.5150 0112000  37.4613 322.5387 13.40652971    07
Epoch (UTC): 31 August 2014 21:04:34
Eccentricity: 0.0112000
inclination: 63.4030°
perigee height: 1023 km
apogee height: 1190 km
right ascension of ascending node: 163.5150°
argument of perigee: 37.4613°
revolutions per day: 13.40652971
mean anomaly at epoch: 322.5387°
orbit number at epoch: 0

The dashed part of the orbit path shows where the satellite is in the earth's shadow,  

DLR